Weather History for Tin City, AK

Change the Weather History Date:

Sunday, May 19, 2013

  Actual Average Record
Temperature  
Mean Temperature 30 °F -  
Max Temperature 31 °F 32 °F 48 °F (1999)
Min Temperature 28 °F 25 °F 15 °F (2000)
Degree Days  
Heating Degree Days 35    
Moisture  
Dew Point 30 °F    
Average Humidity 99    
Maximum Humidity 100    
Minimum Humidity 92    
Precipitation  
Precipitation 0.00 in - - ()
Sea Level Pressure  
Sea Level Pressure 30.08 in    
Wind  
Wind Speed 24 mph (SSW)    
Max Wind Speed 37 mph    
Max Gust Speed 44 mph    
Visibility 4 miles    
Events Fog , Rain , Snow    
Averages and records for this station are not official NWS values.
T = Trace of Precipitation, MM = Missing Value Source: NWS Daily Summary

Daily Weather History Graph

Daily Weather History Graph

Search for Another Location

Airport:

Trip Planner

Search our weather history database for the weather conditions in past years. The results will help you decide how hot, cold, wet, or windy it might be!

Date:

Astronomy

May. 19, 2013 Rise Set
Actual Time 5:22 AM AKDT 12:56 AM AKDT
Civil Twilight 3:40 AM AKDT 2:35 AM AKDT
Nautical Twilight Sun does not rise Sun does not rise
Astronomical Twilight Sun does not rise Sun does not rise
Moon 4:45 PM AKDT (5/19) 4:32 AM AKDT (5/19)
Length of Visible Light 22h 55m
Length of Day
19h 34m
Waxing Gibbous, 66% of the Moon is Illuminated
May 19
Waxing Gibbous
May 24
Full
May 31
Last Quarter
Jun 8
New
Jun 16
First Quarter

Hourly Weather History & Observations

Time (AKDT) Temp. Windchill Dew Point Humidity Pressure Visibility Wind Dir Wind Speed Gust Speed Precip Events Conditions
12:19 AM - - - N/A% 29.97 in 10.0 mi South 16.1 mph - N/A   Light Freezing Drizzle
12:39 AM 28.4 °F 16.6 °F 28.4 °F 100% 29.97 in 10.0 mi South 16.1 mph - N/A   Light Freezing Drizzle
12:55 AM 28.8 °F 16.6 °F 28.9 °F 100% 29.97 in 6.0 mi South 17.3 mph - N/A   Light Freezing Drizzle
12:59 AM 28.4 °F 16.2 °F 28.4 °F 100% 29.97 in 4.0 mi South 17.3 mph - N/A Rain Light Freezing Rain
1:39 AM - - - N/A% 29.98 in 10.0 mi South 19.6 mph - N/A   Light Freezing Drizzle
1:55 AM - - - N/A% 29.98 in 7.0 mi South 17.3 mph - N/A   Unknown
1:59 AM - - - N/A% 29.98 in 6.0 mi South 18.4 mph - N/A   Light Freezing Drizzle
2:19 AM - - - N/A% 29.98 in 0.2 mi South 17.3 mph - N/A Fog Light Freezing Drizzle
2:39 AM - - - N/A% 29.98 in 0.2 mi South 17.3 mph - N/A Fog , Rain Light Freezing Rain
2:55 AM - - - N/A% 29.98 in 0.2 mi South 16.1 mph - N/A Fog , Rain Light Freezing Rain
3:19 AM - - - N/A% 29.99 in 2.0 mi South 19.6 mph - N/A Rain Light Freezing Rain
3:39 AM - - - N/A% 29.99 in 3.0 mi South 18.4 mph - N/A   Light Freezing Drizzle
3:55 AM - - - N/A% 29.99 in 5.0 mi South 17.3 mph - N/A   Light Freezing Drizzle
4:55 AM - - - N/A% 29.99 in 8.0 mi South 17.3 mph - N/A   Light Freezing Drizzle
5:39 AM 28.4 °F 15.4 °F 28.4 °F 100% 29.98 in 10.0 mi South 19.6 mph - N/A Rain Light Freezing Rain
5:55 AM 28.8 °F 15.5 °F 29.1 °F 100% 29.98 in 10.0 mi South 20.7 mph - N/A   Light Freezing Drizzle
6:19 AM 30.2 °F 16.2 °F 30.2 °F 100% 29.97 in 1.0 mi SSW 25.3 mph - N/A Rain Light Freezing Rain
6:40 AM 30.2 °F 16.8 °F 30.2 °F 100% 29.97 in 0.2 mi SSW 23.0 mph - N/A Rain Light Freezing Rain
6:55 AM 29.8 °F 16.0 °F 30.4 °F 100% 29.97 in 0.2 mi SSW 24.2 mph - N/A Fog , Snow Light Snow
7:20 AM 30.2 °F 15.9 °F 30.2 °F 100% 29.97 in 0.5 mi SSW 26.5 mph 32.2 mph N/A Snow Light Snow
7:55 AM 30.0 °F 15.2 °F 30.7 °F 100% 29.97 in 0.5 mi SSW 28.8 mph - N/A Snow Light Snow
8:20 AM 30.2 °F 15.2 °F 30.2 °F 100% 29.97 in 1.0 mi SSW 29.9 mph - N/A Snow Light Snow
8:40 AM 30.2 °F 14.7 °F 30.2 °F 100% 29.97 in 1.8 mi SSW 32.2 mph 38.0 mph N/A Rain Light Freezing Rain
8:55 AM 30.4 °F 15.0 °F 30.9 °F 100% 29.97 in 1.8 mi SSW 32.2 mph - N/A Rain Light Freezing Rain
9:40 AM - - - N/A% 29.99 in 2.0 mi SW 33.4 mph - N/A Rain Light Freezing Rain
9:55 AM - - - N/A% 30.00 in 2.5 mi SW 32.2 mph 39.1 mph N/A Rain Light Rain
10:55 AM - - - N/A% 30.02 in 1.0 mi SW 32.2 mph - N/A   Light Ice Pellets
11:20 AM - - - N/A% 30.04 in 2.5 mi SW 31.1 mph 38.0 mph N/A   Light Ice Pellets
11:40 AM - - - N/A% 30.04 in 1.2 mi SSW 31.1 mph 40.3 mph N/A   Light Ice Pellets
11:55 AM - - - N/A% 30.06 in 1.0 mi SSW 31.1 mph - N/A   Light Ice Pellets
12:00 PM - - - N/A% 30.06 in 1.5 mi SW 28.8 mph - N/A   Light Ice Pellets
12:20 PM - - - N/A% 30.07 in 4.0 mi SW 33.4 mph - N/A   Unknown
12:55 PM 31.1 °F 15.9 °F 31.1 °F 100% 30.08 in 4.0 mi SSW 32.2 mph 40.3 mph N/A   Overcast
1:00 PM 32.0 °F 16.7 °F 32.0 °F 100% 30.08 in 4.0 mi SSW 34.5 mph 43.7 mph N/A Rain Light Rain Showers
1:55 PM 31.3 °F 16.2 °F 31.5 °F 100% 30.11 in 5.0 mi SSW 32.2 mph - N/A Rain Light Freezing Rain
2:20 PM 32.0 °F 17.4 °F 32.0 °F 100% 30.12 in 1.2 mi SSW 31.1 mph 38.0 mph N/A Snow Light Snow Showers
2:40 PM 32.0 °F 17.9 °F 32.0 °F 100% 30.14 in 2.0 mi SSW 28.8 mph - N/A Rain , Snow Light Rain Showers
2:55 PM - - - N/A% 30.12 in 2.5 mi SSW 32.2 mph 40.3 mph N/A Rain Light Rain
3:00 PM - - - N/A% 30.14 in 2.0 mi SSW 32.2 mph 40.3 mph N/A Rain Light Rain
3:20 PM 30.2 °F 14.3 °F 30.2 °F 100% 30.14 in 6.0 mi SSW 34.5 mph 39.1 mph N/A Rain Light Freezing Rain
3:40 PM 30.2 °F 14.9 °F 30.2 °F 100% 30.15 in 10.0 mi SSW 31.1 mph 40.3 mph N/A   Overcast
3:55 PM 30.6 °F 15.0 °F 30.0 °F 98% 30.15 in 10.0 mi SSW 33.4 mph 39.1 mph N/A Rain Light Freezing Rain
4:20 PM 30.2 °F 13.9 °F 28.4 °F 93% 30.15 in 10.0 mi SSW 36.8 mph 42.6 mph N/A   Overcast
4:40 PM 30.2 °F 14.7 °F 28.4 °F 93% 30.16 in 10.0 mi SSW 32.2 mph 41.4 mph N/A   Overcast
4:55 PM 30.7 °F 15.2 °F 28.6 °F 92% 30.17 in 10.0 mi SSW 33.4 mph - N/A   Overcast
5:20 PM 30.2 °F 14.5 °F 28.4 °F 93% 30.17 in 10.0 mi SSW 33.4 mph 38.0 mph N/A Rain Light Freezing Rain
5:40 PM 30.2 °F 14.7 °F 28.4 °F 93% 30.18 in 10.0 mi SSW 32.2 mph 40.3 mph N/A   Overcast
5:55 PM 30.4 °F 15.4 °F 29.3 °F 96% 30.18 in 10.0 mi SSW 29.9 mph 38.0 mph N/A   Overcast
6:55 PM 30.2 °F 15.2 °F 29.3 °F 96% 30.19 in 10.0 mi SSW 29.9 mph 35.7 mph N/A   Overcast
7:20 PM 30.2 °F 15.7 °F 30.2 °F 100% 30.20 in 10.0 mi SSW 27.6 mph 34.5 mph N/A   Overcast
7:55 PM 29.7 °F 14.5 °F 29.3 °F 99% 30.20 in 10.0 mi South 29.9 mph 35.7 mph N/A   Overcast
8:00 PM 30.2 °F 14.9 °F 30.2 °F 100% 30.20 in 10.0 mi South 31.1 mph 36.8 mph N/A Snow Light Snow
8:20 PM 30.2 °F 15.4 °F 30.2 °F 100% 30.21 in 1.5 mi South 28.8 mph - N/A Snow Light Snow
8:40 PM 30.2 °F 15.9 °F 30.2 °F 100% 30.21 in 1.0 mi South 26.5 mph 32.2 mph N/A Snow Light Snow
8:55 PM 29.3 °F 14.7 °F 29.7 °F 100% 30.21 in 1.0 mi South 26.5 mph 32.2 mph N/A Snow Light Snow
9:00 PM 30.2 °F 16.2 °F 30.2 °F 100% 30.21 in 0.8 mi South 25.3 mph 32.2 mph N/A Snow Light Snow
9:40 PM 30.2 °F 16.2 °F 30.2 °F 100% 30.22 in 1.0 mi SSW 25.3 mph - N/A Snow Light Snow
9:55 PM 29.5 °F 14.5 °F 29.8 °F 100% 30.22 in 1.0 mi South 28.8 mph - N/A Snow Light Snow
10:20 PM 30.2 °F 15.9 °F 30.2 °F 100% 30.22 in 1.2 mi South 26.5 mph 32.2 mph N/A Snow Light Snow
10:55 PM 29.7 °F 15.8 °F 30.2 °F 100% 30.23 in 1.5 mi South 24.2 mph - N/A Snow Light Snow
11:40 PM 30.2 °F 16.8 °F 30.2 °F 100% 30.23 in 0.5 mi South 23.0 mph - N/A Snow Light Snow
11:55 PM 30.0 °F 16.6 °F 30.6 °F 100% 30.23 in 0.5 mi South 23.0 mph - N/A Snow Snow